Simultaneous Nadir Overpasses (SNOs) Predictions

Prediction of SNOs between GOES-15 and LANDSAT-8 Satellite Orbit:

Table of predicted SNOs for the next 14.0 days since TLE Epoch: 1/9/2021
Index Date Time (GOES-15) GOES-15 Lat,Lon LANDSAT-8 Lat,Lon Distance(km) Time Diff (sec)
1 01/09/2021 06:30:26 -0.11,-128.15 0.72,-124.23 446.22 80
2 01/09/2021 18:49:02 0.08,-128.16 0.34,-129.39 139.71 80
3 01/11/2021 18:39:30 0.08,-128.13 -0.31,-126.44 193.21 80
4 01/12/2021 06:58:14 -0.05,-128.10 -0.79,-131.63 401.24 80
5 01/14/2021 06:46:01 -0.06,-128.06 -0.21,-128.66 68.45 80
6 01/16/2021 06:36:29 -0.07,-128.03 0.44,-125.70 264.31 80
7 01/16/2021 18:55:05 0.03,-128.04 0.61,-130.87 321.16 80
8 01/18/2021 18:45:32 0.04,-128.00 0.02,-127.90 11.42 80
9 01/20/2021 18:33:19 0.05,-127.96 -0.57,-124.93 343.70 80
10 01/21/2021 06:52:04 -0.01,-127.92 -0.46,-130.14 251.58 80
